This demonstration page uses our WeatherBlox Daily Observations layout. Learn more.

38.89511, -77.03637

Hourly Observations for April 11, 2015

Temp ( °F °C ) Dew Point ( °F °C ) Humidity (%) Winds ( mph kmh ) Pressure ( in mb ) Visibility ( mi km ) Precip ( " mm )
12:52 am 00:52 Cloudy 65 18.3 37 2.8 36 36 NW 20 31 29.92 1013 10 16.0934 0 0
1:52 am 01:52 Mostly Cloudy 63 17.2 36 2.2 37 37 NW 5 7 29.95 1014 10 16.0934 0 0
2:52 am 02:52 Cloudy 59 15 37 2.8 44 44 Calm 29.97 1015 10 16.0934 0 0
3:52 am 03:52 Cloudy 55 12.8 46 7.8 72 72 Calm 29.96 1015 10 16.0934 0 0
4:52 am 04:52 Mostly Cloudy 53 11.7 41 5 64 64 W 3 6 29.94 1014 10 16.0934 0 0
5:52 am 05:52 Mostly Cloudy 53 11.7 40 4.4 61 61 SW 6 9 29.96 1015 10 16.0934 0 0
6:52 am 06:52 Mostly Cloudy 58 14.4 35 1.7 42 42 W 8 13 29.98 1015 10 16.0934 0 0
7:52 am 07:52 Mostly Cloudy 61 16.1 36 2.2 39 39 WNW 18 30 30.03 1017 10 16.0934 0 0
8:52 am 08:52 Partly Cloudy 63 17.2 38 3.3 40 40 NW 16 26 30.05 1018 10 16.0934 0 0
9:52 am 09:52 Partly Cloudy 64 17.8 39 3.9 40 40 NNW 20 31 30.07 1018 10 16.0934 0 0
10:52 am 10:52 Partly Cloudy 63 17.2 36 2.2 37 37 NW 21 33 30.1 1019 10 16.0934 0 0
11:52 am 11:52 Partly Cloudy 63 17.2 35 1.7 35 35 N 23 37 30.11 1020 10 16.0934 0 0
12:52 pm 12:52 Partly Cloudy 66 18.9 34 1.1 30 30 NNW 13 20 30.11 1020 10 16.0934 0 0
1:52 pm 13:52 Partly Cloudy 66 18.9 29 -1.7 25 25 W 16 26 30.12 1020 10 16.0934 0 0
2:52 pm 14:52 Partly Cloudy 67 19.4 30 -1.1 25 25 WNW 15 24 30.12 1020 10 16.0934 0 0
3:52 pm 15:52 Partly Cloudy 67 19.4 28 -2.2 23 23 WNW 13 20 30.11 1020 10 16.0934 0 0
4:52 pm 16:52 Partly Cloudy 68 20 29 -1.7 23 23 NW 14 22 30.11 1020 10 16.0934 0 0
5:52 pm 17:52 Sunny 66 18.9 25 -3.9 21 21 NW 14 22 30.13 1020 10 16.0934 0 0
6:52 pm 18:52 Sunny 65 18.3 25 -3.9 22 22 NNW 12 19 30.14 1021 10 16.0934 0 0
7:52 pm 19:52 Clear 62 16.7 25 -3.9 24 24 NNW 8 13 30.16 1021 10 16.0934 0 0
8:52 pm 20:52 Clear 58 14.4 28 -2.2 32 32 NNW 9 15 30.2 1023 10 16.0934 0 0
9:52 pm 21:52 Clear 58 14.4 28 -2.2 32 32 NNW 7 11 30.23 1024 10 16.0934 0 0
10:52 pm 22:52 Clear 56 13.3 28 -2.2 34 34 NNW 8 13 30.24 1024 10 16.0934 0 0
11:52 pm 23:52 Clear 54 12.2 30 -1.1 40 40 N 7 11 30.26 1025 10 16.0934 0 0

Powered by AerisWeather